Location: Kielce
(50.8833°N, 20.6167°E)
Time: 17:38:51
(UTC+02:00)

X-37B - Pass Details

Date: 14 March 2021
Orbit: 380 x 394 km, 45.0° (Epoch: 07 April)

Event Time Altitude Azimuth Distance (km) Brightness Sun altitude
Rises 18:59:07 0° 231° (SW) 2,266 5.1 -13.1°
Reaches altitude 10° 19:01:30 10° 214° (SW) 1,416 3.7 -13.4°
Maximum altitude 19:03:57 21° 164° (SSE) 953 2.3 -13.8°
Enters shadow 19:04:29 20° 149° (SSE) 980 2.2 -13.9°
